Location: Clanezzo
(45.7500°N, 9.6000°E)
Time: 04:13:52
(UTC+00:00)

Meteor 1-19 Rocket - Pass Details

Date: 12 May 2021
Orbit: 808 x 927 km, 81.2° (Epoch: 18 June)

Event Time Altitude Azimuth Distance (km) Brightness Sun altitude
Exits shadow 22:12:05 64° 170° (S) 893 4.0 -24.2°
Maximum altitude 22:12:54 81° 100° (E) 824 4.0 -24.2°
Drops below altitude 10° 22:18:20 10° 13° (NNE) 2,406 7.4 -24.5°
Sets 22:20:44 0° 12° (NNE) 3,348 8.3 -24.6°
